Погода в Старой Малыкле

Россия / Ульяновская область     54°13′37″N   49°49′55″E
темп.,
°C
ветер,
м/с
пор.,
м/с
влажн.,
%
обл.,
%
осадки,
мм/ч
давл.,
гПа
погр.,
м
12 апреля, пн
пн1201:00+7с3696100 0.0 1032132
04:00+7ссв379698 0.0 1033180
07:00+7ссв389690 0.0 1034225
10:00+9св3793100 0.0 1034258
13:00+12св468093 0.0 1035483
16:00+14всв467492 0.0 1034516
19:00+12св498441 0.0 1035263
22:00+9всв499257 0.0 1035197
13 апреля, вт
вт1301:00+8всв379591 0.0 1035134
04:00+7в249461 0.0 103666
07:00+8вюв259249 0.0 1035101
10:00+14ююв356854 0.0 1035414
13:00+18ююв345073 0.0 1034950
16:00+19ююв454570 0.0 10331243
19:00+15ююв34605 0.0 103263
22:00+11ююв33605 0.0 103330
14 апреля, ср
ср1401:00+8ю22629 0.0 103215
04:00+7ююв22655 0.0 103211
07:00+7юв22695 0.0 103226
10:00+13юв345466 0.0 1031415
13:00+17юв35498 0.0 1029943
16:00+18юв45455 0.0 10271117
19:00+15юв22625 0.0 102613
22:00+11юв11745 0.0 102510
15 апреля, чт
чт1501:00+10вюв12825 0.0 102511
04:00+9вюв22885 0.0 102412
07:00+9юв22864 0.0 102341
10:00+14ююв34575 0.0 1022494
13:00+17ююв34470 0.0 10211130
16:00+18ю33440 0.0 10191399
19:00+15ююз11600 0.0 101811
22:00+12с00680 0.0 101710
16 апреля, пт
пт1601:00+11в11721 0.0 101610
04:00+9ююв00784 0.0 101610
07:00+10зсз00770 0.0 101510
10:00+15сз11564 0.0 1014347
13:00+19зсз23445 0.0 10131799
16:00+18зсз3447100 0.0 1012831
19:00+14с61065100 0.1 1013458
22:00+6с61184100 0.1 1015554